Year,Month,Day,Hour,Minute,Value (Times are PST for temperature in C)
2013,08,30,00,00,16.10
2013,08,30,00,01,16.00
2013,08,30,00,02,15.90
2013,08,30,00,03,15.80
2013,08,30,00,04,15.80
2013,08,30,00,05,15.80
2013,08,30,00,06,15.70
2013,08,30,00,07,15.70
2013,08,30,00,08,15.60
2013,08,30,00,09,15.60
2013,08,30,00,10,15.50
2013,08,30,00,11,15.50
2013,08,30,00,12,15.40
2013,08,30,00,13,15.40
2013,08,30,00,14,15.40
2013,08,30,00,15,15.50
2013,08,30,00,16,15.70
2013,08,30,00,17,15.70
2013,08,30,00,18,15.80
2013,08,30,00,19,15.80
2013,08,30,00,20,15.80
2013,08,30,00,21,15.80
2013,08,30,00,22,15.80
2013,08,30,00,23,15.80
2013,08,30,00,24,15.70
2013,08,30,00,25,15.70
2013,08,30,00,26,15.70
2013,08,30,00,27,15.60
2013,08,30,00,28,15.60
2013,08,30,00,29,15.60
2013,08,30,00,30,15.50
2013,08,30,00,31,15.40
2013,08,30,00,32,15.40
2013,08,30,00,33,15.30
2013,08,30,00,34,15.20
2013,08,30,00,35,15.10
2013,08,30,00,36,15.00
2013,08,30,00,37,15.00
2013,08,30,00,38,14.90
2013,08,30,00,39,14.80
2013,08,30,00,40,14.80
2013,08,30,00,41,14.80
2013,08,30,00,42,14.70
2013,08,30,00,43,14.70
2013,08,30,00,44,14.60
2013,08,30,00,45,14.60
2013,08,30,00,46,14.50
2013,08,30,00,47,14.50
2013,08,30,00,48,14.40
2013,08,30,00,49,14.40
2013,08,30,00,50,14.40
2013,08,30,00,51,14.40
2013,08,30,00,52,14.40
2013,08,30,00,53,14.30
2013,08,30,00,54,14.30
2013,08,30,00,55,14.30
2013,08,30,00,56,14.30
2013,08,30,00,57,14.30
2013,08,30,00,58,14.30
2013,08,30,00,59,14.20
2013,08,30,01,00,14.20
2013,08,30,01,01,14.20
2013,08,30,01,02,14.20
2013,08,30,01,03,14.20
2013,08,30,01,04,14.20
2013,08,30,01,05,14.20
2013,08,30,01,06,14.20
2013,08,30,01,07,14.20
2013,08,30,01,08,14.20
2013,08,30,01,09,14.10
2013,08,30,01,10,14.10
2013,08,30,01,11,14.10
2013,08,30,01,12,14.10
2013,08,30,01,13,14.10
2013,08,30,01,14,14.10
2013,08,30,01,15,14.10
2013,08,30,01,16,14.10
2013,08,30,01,17,14.10
2013,08,30,01,18,14.00
2013,08,30,01,19,14.00
2013,08,30,01,20,14.00
2013,08,30,01,21,14.00
2013,08,30,01,22,14.00
2013,08,30,01,23,14.00
2013,08,30,01,24,14.00
2013,08,30,01,25,14.00
2013,08,30,01,26,14.00
2013,08,30,01,27,14.00
2013,08,30,01,28,14.00
2013,08,30,01,29,14.00
2013,08,30,01,30,14.00
2013,08,30,01,31,14.00
2013,08,30,01,32,14.00
2013,08,30,01,33,14.00
2013,08,30,01,34,14.00
2013,08,30,01,35,14.00
2013,08,30,01,36,14.00
2013,08,30,01,37,13.90
2013,08,30,01,38,13.90
2013,08,30,01,39,13.90
2013,08,30,01,40,13.90
2013,08,30,01,41,13.90
2013,08,30,01,42,14.00
2013,08,30,01,43,14.00
2013,08,30,01,44,14.00
2013,08,30,01,45,14.00
2013,08,30,01,46,14.00
2013,08,30,01,47,14.00
2013,08,30,01,48,14.10
2013,08,30,01,49,14.10
2013,08,30,01,50,14.10
2013,08,30,01,51,14.10
2013,08,30,01,52,14.10
2013,08,30,01,53,14.00
2013,08,30,01,54,14.00
2013,08,30,01,55,14.00
2013,08,30,01,56,14.00
2013,08,30,01,57,14.00
2013,08,30,01,58,14.00
2013,08,30,01,59,14.00
2013,08,30,02,00,14.00
2013,08,30,02,01,14.00
2013,08,30,02,02,14.00
2013,08,30,02,03,14.00
2013,08,30,02,04,14.00
2013,08,30,02,05,14.00
2013,08,30,02,06,14.00
2013,08,30,02,07,14.00
2013,08,30,02,08,14.00
2013,08,30,02,09,14.00
2013,08,30,02,10,14.00
2013,08,30,02,11,14.00
2013,08,30,02,12,14.00
2013,08,30,02,13,14.00
2013,08,30,02,14,14.00
2013,08,30,02,15,14.00
2013,08,30,02,16,14.00
2013,08,30,02,17,14.10
2013,08,30,02,18,14.00
2013,08,30,02,19,14.10
2013,08,30,02,20,14.10
2013,08,30,02,21,14.10
2013,08,30,02,22,14.10
2013,08,30,02,23,14.10
2013,08,30,02,24,14.10
2013,08,30,02,25,14.10
2013,08,30,02,26,14.10
2013,08,30,02,27,14.10
2013,08,30,02,28,14.10
2013,08,30,02,29,14.10
2013,08,30,02,30,14.20
2013,08,30,02,31,14.20
2013,08,30,02,32,14.30
2013,08,30,02,33,14.30
2013,08,30,02,34,14.40
2013,08,30,02,35,14.50
2013,08,30,02,36,14.60
2013,08,30,02,37,14.60
2013,08,30,02,38,14.60
2013,08,30,02,39,14.70
2013,08,30,02,40,14.70
2013,08,30,02,41,14.80
2013,08,30,02,42,14.80
2013,08,30,02,43,14.80
2013,08,30,02,44,14.80
2013,08,30,02,45,14.90
2013,08,30,02,46,14.90
2013,08,30,02,47,14.90
2013,08,30,02,48,14.90
2013,08,30,02,49,14.90
2013,08,30,02,50,14.90
2013,08,30,02,51,14.90
2013,08,30,02,52,14.90
2013,08,30,02,53,14.90
2013,08,30,02,54,14.90
2013,08,30,02,55,14.90
2013,08,30,02,56,14.80
2013,08,30,02,57,14.80
2013,08,30,02,58,14.80
2013,08,30,02,59,14.80
2013,08,30,03,00,14.80
2013,08,30,03,01,14.80
2013,08,30,03,02,14.90
2013,08,30,03,03,14.90
2013,08,30,03,04,14.90
2013,08,30,03,05,14.90
2013,08,30,03,06,14.80
2013,08,30,03,07,14.80
2013,08,30,03,08,14.80
2013,08,30,03,09,14.80
2013,08,30,03,10,14.80
2013,08,30,03,11,14.80
2013,08,30,03,12,14.90
2013,08,30,03,13,14.90
2013,08,30,03,14,14.90
2013,08,30,03,15,14.90
2013,08,30,03,16,14.90
2013,08,30,03,17,14.90
2013,08,30,03,18,14.90
2013,08,30,03,19,14.90
2013,08,30,03,20,14.90
2013,08,30,03,21,15.00
2013,08,30,03,22,15.00
2013,08,30,03,23,15.00
2013,08,30,03,24,15.00
2013,08,30,03,25,15.00
2013,08,30,03,26,15.10
2013,08,30,03,27,15.10
2013,08,30,03,28,15.10
2013,08,30,03,29,15.10
2013,08,30,03,30,15.20
2013,08,30,03,31,15.20
2013,08,30,03,32,15.20
2013,08,30,03,33,15.20
2013,08,30,03,34,15.20
2013,08,30,03,35,15.20
2013,08,30,03,36,15.20
2013,08,30,03,37,15.20
2013,08,30,03,38,15.20
2013,08,30,03,39,15.20
2013,08,30,03,40,15.20
2013,08,30,03,41,15.20
2013,08,30,03,42,15.20
2013,08,30,03,43,15.30
2013,08,30,03,44,15.30
2013,08,30,03,45,15.30
2013,08,30,03,46,15.30
2013,08,30,03,47,15.30
2013,08,30,03,48,15.30
2013,08,30,03,49,15.40
2013,08,30,03,50,15.40
2013,08,30,03,51,15.40
2013,08,30,03,52,15.40
2013,08,30,03,53,15.50
2013,08,30,03,54,15.50
2013,08,30,03,55,15.50
2013,08,30,03,56,15.50
2013,08,30,03,57,15.50
2013,08,30,03,58,15.50
2013,08,30,03,59,15.50
2013,08,30,04,00,15.60
2013,08,30,04,01,15.50
2013,08,30,04,02,15.50
2013,08,30,04,03,15.50
2013,08,30,04,04,15.50
2013,08,30,04,05,15.50
2013,08,30,04,06,15.50
2013,08,30,04,07,15.50
2013,08,30,04,08,15.50
2013,08,30,04,09,15.50
2013,08,30,04,10,15.40
2013,08,30,04,11,15.40
2013,08,30,04,12,15.40
2013,08,30,04,13,15.40
2013,08,30,04,14,15.30
2013,08,30,04,15,15.30
2013,08,30,04,16,15.30
2013,08,30,04,17,15.20
2013,08,30,04,18,15.20
2013,08,30,04,19,15.10
2013,08,30,04,20,15.10
2013,08,30,04,21,15.10
2013,08,30,04,22,15.10
2013,08,30,04,23,15.00
2013,08,30,04,24,15.00
2013,08,30,04,25,15.00
2013,08,30,04,26,14.90
2013,08,30,04,27,14.90
2013,08,30,04,28,14.80
2013,08,30,04,29,14.80
2013,08,30,04,30,14.70
2013,08,30,04,31,14.60
2013,08,30,04,32,14.60
2013,08,30,04,33,14.50
2013,08,30,04,34,14.40
2013,08,30,04,35,14.40
2013,08,30,04,36,14.30
2013,08,30,04,37,14.30
2013,08,30,04,38,14.30
2013,08,30,04,39,14.20
2013,08,30,04,40,14.20
2013,08,30,04,41,14.10
2013,08,30,04,42,14.10
2013,08,30,04,43,14.10
2013,08,30,04,44,14.00
2013,08,30,04,45,14.00
2013,08,30,04,46,14.00
2013,08,30,04,47,14.00
2013,08,30,04,48,13.90
2013,08,30,04,49,13.90
2013,08,30,04,50,13.90
2013,08,30,04,51,13.90
2013,08,30,04,52,13.80
2013,08,30,04,53,13.80
2013,08,30,04,54,13.80
2013,08,30,04,55,13.80
2013,08,30,04,56,13.70
2013,08,30,04,57,13.70
2013,08,30,04,58,13.70
2013,08,30,04,59,13.70
2013,08,30,05,00,13.70
2013,08,30,05,01,13.60
2013,08,30,05,02,13.60
2013,08,30,05,03,13.60
2013,08,30,05,04,13.50
2013,08,30,05,05,13.50
2013,08,30,05,06,13.40
2013,08,30,05,07,13.40
2013,08,30,05,08,13.40
2013,08,30,05,09,13.30
2013,08,30,05,10,13.30
2013,08,30,05,11,13.30
2013,08,30,05,12,13.30
2013,08,30,05,13,13.20
2013,08,30,05,14,13.20
2013,08,30,05,15,13.20
2013,08,30,05,16,13.20
2013,08,30,05,17,13.20
2013,08,30,05,18,13.20
2013,08,30,05,19,13.20
2013,08,30,05,20,13.20
2013,08,30,05,21,13.20
2013,08,30,05,22,13.20
2013,08,30,05,23,13.20
2013,08,30,05,24,13.20
2013,08,30,05,25,13.20
2013,08,30,05,26,13.30
2013,08,30,05,27,13.30
2013,08,30,05,28,13.30
2013,08,30,05,29,13.30
2013,08,30,05,30,13.30
2013,08,30,05,31,13.30
2013,08,30,05,32,13.30
2013,08,30,05,33,13.30
2013,08,30,05,34,13.30
2013,08,30,05,35,13.30
2013,08,30,05,36,13.30
2013,08,30,05,37,13.30
2013,08,30,05,38,13.30
2013,08,30,05,39,13.30
2013,08,30,05,40,13.30
2013,08,30,05,41,13.30
2013,08,30,05,42,13.30
2013,08,30,05,43,13.30
2013,08,30,05,44,13.30
2013,08,30,05,45,13.30
2013,08,30,05,46,13.30
2013,08,30,05,47,13.30
2013,08,30,05,48,13.30
2013,08,30,05,49,13.30
2013,08,30,05,50,13.30
2013,08,30,05,51,13.30
2013,08,30,05,52,13.30
2013,08,30,05,53,13.30
2013,08,30,05,54,13.30
2013,08,30,05,55,13.30
2013,08,30,05,56,13.30
2013,08,30,05,57,13.30
2013,08,30,05,58,13.30
2013,08,30,05,59,13.30
2013,08,30,06,00,13.30
2013,08,30,06,01,13.30
2013,08,30,06,02,13.30
2013,08,30,06,03,13.30
2013,08,30,06,04,13.30
2013,08,30,06,05,13.30
2013,08,30,06,06,13.30
2013,08,30,06,07,13.30
2013,08,30,06,08,13.30
2013,08,30,06,09,13.30
2013,08,30,06,10,13.30
2013,08,30,06,11,13.30
2013,08,30,06,12,13.30
2013,08,30,06,13,13.30
2013,08,30,06,14,13.30
2013,08,30,06,15,13.30
2013,08,30,06,16,13.30
2013,08,30,06,17,13.30
2013,08,30,06,18,13.30
2013,08,30,06,19,13.30
2013,08,30,06,20,13.30
2013,08,30,06,21,13.30
2013,08,30,06,22,13.30
2013,08,30,06,23,13.30
2013,08,30,06,24,13.30
2013,08,30,06,25,13.30
2013,08,30,06,26,13.30
2013,08,30,06,27,13.30
2013,08,30,06,28,13.30
2013,08,30,06,29,13.30
2013,08,30,06,30,13.30
2013,08,30,06,31,13.30
2013,08,30,06,32,13.30
2013,08,30,06,33,13.30
2013,08,30,06,34,13.30
2013,08,30,06,35,13.30
2013,08,30,06,36,13.30
2013,08,30,06,37,13.30
2013,08,30,06,38,13.40
2013,08,30,06,39,13.40
2013,08,30,06,40,13.40
2013,08,30,06,41,13.40
2013,08,30,06,42,13.40
2013,08,30,06,43,13.40
2013,08,30,06,44,13.40
2013,08,30,06,45,13.50
2013,08,30,06,46,13.50
2013,08,30,06,47,13.60
2013,08,30,06,48,13.70
2013,08,30,06,49,13.80
2013,08,30,06,50,13.90
2013,08,30,06,51,14.00
2013,08,30,06,52,14.20
2013,08,30,06,53,14.30
2013,08,30,06,54,14.40
2013,08,30,06,55,14.40
2013,08,30,06,56,14.50
2013,08,30,06,57,14.60
2013,08,30,06,58,14.70
2013,08,30,06,59,14.80
2013,08,30,07,00,14.80
2013,08,30,07,01,14.90
2013,08,30,07,02,14.90
2013,08,30,07,03,14.90
2013,08,30,07,04,14.90
2013,08,30,07,05,14.90
2013,08,30,07,06,14.80
2013,08,30,07,07,14.70
2013,08,30,07,08,14.70
2013,08,30,07,09,14.60
2013,08,30,07,10,14.50
2013,08,30,07,11,14.50
2013,08,30,07,12,14.40
2013,08,30,07,13,14.40
2013,08,30,07,14,14.30
2013,08,30,07,15,14.30
2013,08,30,07,16,14.30
2013,08,30,07,17,14.30
2013,08,30,07,18,14.30
2013,08,30,07,19,14.30
2013,08,30,07,20,14.40
2013,08,30,07,21,14.40
2013,08,30,07,22,14.50
2013,08,30,07,23,14.50
2013,08,30,07,24,14.60
2013,08,30,07,25,14.70
2013,08,30,07,26,14.70
2013,08,30,07,27,14.80
2013,08,30,07,28,14.90
2013,08,30,07,29,14.90
2013,08,30,07,30,14.90
2013,08,30,07,31,15.00
2013,08,30,07,32,15.00
2013,08,30,07,33,15.00
2013,08,30,07,34,15.10
2013,08,30,07,35,15.10
2013,08,30,07,36,15.20
2013,08,30,07,37,15.20
2013,08,30,07,38,15.20
2013,08,30,07,39,15.30
2013,08,30,07,40,15.30
2013,08,30,07,41,15.30
2013,08,30,07,42,15.30
2013,08,30,07,43,15.30
2013,08,30,07,44,15.30
2013,08,30,07,45,15.30
2013,08,30,07,46,15.30
2013,08,30,07,47,15.30
2013,08,30,07,48,15.30
2013,08,30,07,49,15.30
2013,08,30,07,50,15.20
2013,08,30,07,51,15.20
2013,08,30,07,52,15.20
2013,08,30,07,53,15.20
2013,08,30,07,54,15.20
2013,08,30,07,55,15.20
2013,08,30,07,56,15.20
2013,08,30,07,57,15.20
2013,08,30,07,58,15.20
2013,08,30,07,59,15.30
2013,08,30,08,00,15.30
2013,08,30,08,01,15.40
2013,08,30,08,02,15.40
2013,08,30,08,03,15.40
2013,08,30,08,04,15.50
2013,08,30,08,05,15.50
2013,08,30,08,06,15.50
2013,08,30,08,07,15.50
2013,08,30,08,08,15.50
2013,08,30,08,09,15.50
2013,08,30,08,10,15.50
2013,08,30,08,11,15.50
2013,08,30,08,12,15.50
2013,08,30,08,13,15.50
2013,08,30,08,14,15.50
2013,08,30,08,15,15.50
2013,08,30,08,16,15.50
2013,08,30,08,17,15.50
2013,08,30,08,18,15.50
2013,08,30,08,19,15.50
2013,08,30,08,20,15.50
2013,08,30,08,21,15.50
2013,08,30,08,22,15.50
2013,08,30,08,23,15.50
2013,08,30,08,24,15.50
2013,08,30,08,25,15.50
2013,08,30,08,26,15.50
2013,08,30,08,27,15.60
2013,08,30,08,28,15.60
2013,08,30,08,29,15.60
2013,08,30,08,30,15.60
2013,08,30,08,31,15.60
2013,08,30,08,32,15.70
2013,08,30,08,33,15.70
2013,08,30,08,34,15.70
2013,08,30,08,35,15.70
2013,08,30,08,36,15.80
2013,08,30,08,37,15.80
2013,08,30,08,38,15.90
2013,08,30,08,39,16.00
2013,08,30,08,40,16.10
2013,08,30,08,41,16.10
2013,08,30,08,42,16.20
2013,08,30,08,43,16.20
2013,08,30,08,44,16.30
2013,08,30,08,45,16.30
2013,08,30,08,46,16.30
2013,08,30,08,47,16.40
2013,08,30,08,48,16.40
2013,08,30,08,49,16.40
2013,08,30,08,50,16.50
2013,08,30,08,51,16.50
2013,08,30,08,52,16.50
2013,08,30,08,53,16.50
2013,08,30,08,54,16.60
2013,08,30,08,55,16.60
2013,08,30,08,56,16.60
2013,08,30,08,57,16.70
2013,08,30,08,58,16.70
2013,08,30,08,59,16.70
2013,08,30,09,00,16.70
2013,08,30,09,01,16.70
2013,08,30,09,02,16.70
2013,08,30,09,03,16.60
2013,08,30,09,04,16.60
2013,08,30,09,05,16.60
2013,08,30,09,06,16.60
2013,08,30,09,07,16.60
2013,08,30,09,08,16.50
2013,08,30,09,09,16.50
2013,08,30,09,10,16.40
2013,08,30,09,11,16.40
2013,08,30,09,12,16.40
2013,08,30,09,13,16.30
2013,08,30,09,14,16.30
2013,08,30,09,15,16.30
2013,08,30,09,16,16.30
2013,08,30,09,17,16.30
2013,08,30,09,18,16.30
2013,08,30,09,19,16.20
2013,08,30,09,20,16.30
2013,08,30,09,21,16.30
2013,08,30,09,22,16.20
2013,08,30,09,23,16.20
2013,08,30,09,24,16.20
2013,08,30,09,25,16.30
2013,08,30,09,26,16.30
2013,08,30,09,27,16.30
2013,08,30,09,28,16.30
2013,08,30,09,29,16.30
2013,08,30,09,30,16.30
2013,08,30,09,31,16.20
2013,08,30,09,32,16.20
2013,08,30,09,33,16.20
2013,08,30,09,34,16.20
2013,08,30,09,35,16.20
2013,08,30,09,36,16.20
2013,08,30,09,37,16.20
2013,08,30,09,38,16.10
2013,08,30,09,39,16.10
2013,08,30,09,40,16.10
2013,08,30,09,41,16.10
2013,08,30,09,42,16.10
2013,08,30,09,43,16.10
2013,08,30,09,44,16.10
2013,08,30,09,45,16.10
2013,08,30,09,46,16.10
2013,08,30,09,47,16.10
2013,08,30,09,48,16.10
2013,08,30,09,49,16.10
2013,08,30,09,50,16.10
2013,08,30,09,51,16.10
2013,08,30,09,52,16.10
2013,08,30,09,53,16.10
2013,08,30,09,54,16.10
2013,08,30,09,55,16.10
2013,08,30,09,56,16.10
2013,08,30,09,57,16.10
2013,08,30,09,58,16.10
2013,08,30,09,59,16.10
2013,08,30,10,00,16.10
2013,08,30,10,01,16.10
2013,08,30,10,02,16.10
2013,08,30,10,03,16.10
2013,08,30,10,04,16.10
2013,08,30,10,05,16.10
2013,08,30,10,06,16.10
2013,08,30,10,07,16.10
2013,08,30,10,08,16.10
2013,08,30,10,09,16.10
2013,08,30,10,10,16.10
2013,08,30,10,11,16.10
2013,08,30,10,12,16.10
2013,08,30,10,13,16.10
2013,08,30,10,14,16.10
2013,08,30,10,15,16.20
2013,08,30,10,16,16.20
2013,08,30,10,17,16.20
2013,08,30,10,18,16.20
2013,08,30,10,19,16.20
2013,08,30,10,20,16.20
2013,08,30,10,21,16.20
2013,08,30,10,22,16.30
2013,08,30,10,23,16.30
2013,08,30,10,24,16.30
2013,08,30,10,25,16.30
2013,08,30,10,26,16.30
2013,08,30,10,27,16.30
2013,08,30,10,28,16.30
2013,08,30,10,29,16.40
2013,08,30,10,30,16.40
2013,08,30,10,31,16.40
2013,08,30,10,32,16.50
2013,08,30,10,33,16.50
2013,08,30,10,34,16.60
2013,08,30,10,35,16.60
2013,08,30,10,36,16.70
2013,08,30,10,37,16.70
2013,08,30,10,38,16.70
2013,08,30,10,39,16.70
2013,08,30,10,40,16.80
2013,08,30,10,41,16.80
2013,08,30,10,42,16.80
2013,08,30,10,43,16.80
2013,08,30,10,44,16.80
2013,08,30,10,45,16.80
2013,08,30,10,46,16.80
2013,08,30,10,47,16.70
2013,08,30,10,48,16.70
2013,08,30,10,49,16.70
2013,08,30,10,50,16.70
2013,08,30,10,51,16.70
2013,08,30,10,52,16.80
2013,08,30,10,53,16.80
2013,08,30,10,54,16.80
2013,08,30,10,55,16.80
2013,08,30,10,56,16.80
2013,08,30,10,57,16.90
2013,08,30,10,58,16.90
2013,08,30,10,59,16.90
2013,08,30,11,00,16.90
2013,08,30,11,01,16.80
2013,08,30,11,02,16.80
2013,08,30,11,03,16.80
2013,08,30,11,04,16.80
2013,08,30,11,05,16.80
2013,08,30,11,06,16.80
2013,08,30,11,07,16.80
2013,08,30,11,08,16.70
2013,08,30,11,09,16.70
2013,08,30,11,10,16.70
2013,08,30,11,11,16.70
2013,08,30,11,12,16.70
2013,08,30,11,13,16.70
2013,08,30,11,14,16.70
2013,08,30,11,15,16.70
2013,08,30,11,16,16.70
2013,08,30,11,17,16.70
2013,08,30,11,18,16.70
2013,08,30,11,19,16.70
2013,08,30,11,20,16.70
2013,08,30,11,21,16.70
2013,08,30,11,22,16.70
2013,08,30,11,23,16.70
2013,08,30,11,24,16.70
2013,08,30,11,25,16.70
2013,08,30,11,26,16.70
2013,08,30,11,27,16.70
2013,08,30,11,28,16.80
2013,08,30,11,29,16.80
2013,08,30,11,30,16.70
2013,08,30,11,31,16.70
2013,08,30,11,32,16.70
2013,08,30,11,33,16.70
2013,08,30,11,34,16.70
2013,08,30,11,35,16.70
2013,08,30,11,36,16.70
2013,08,30,11,37,16.70
2013,08,30,11,38,16.70
2013,08,30,11,39,16.70
2013,08,30,11,40,16.70
2013,08,30,11,41,16.80
2013,08,30,11,42,16.80
2013,08,30,11,43,16.80
2013,08,30,11,44,16.80
2013,08,30,11,45,16.80
2013,08,30,11,46,16.80
2013,08,30,11,47,16.80
2013,08,30,11,48,16.80
2013,08,30,11,49,16.80
2013,08,30,11,50,16.90
2013,08,30,11,51,16.90
2013,08,30,11,52,16.90
2013,08,30,11,53,16.90
2013,08,30,11,54,17.00
2013,08,30,11,55,17.00
2013,08,30,11,56,17.00
2013,08,30,11,57,17.10
2013,08,30,11,58,17.10
2013,08,30,11,59,17.10
2013,08,30,12,00,17.20
2013,08,30,12,01,17.20
2013,08,30,12,02,17.20
2013,08,30,12,03,17.20
2013,08,30,12,04,17.20
2013,08,30,12,05,17.20
2013,08,30,12,06,17.20
2013,08,30,12,07,17.20
2013,08,30,12,08,17.20
2013,08,30,12,09,17.10
2013,08,30,12,10,17.10
2013,08,30,12,11,17.10
2013,08,30,12,12,17.10
2013,08,30,12,13,17.10
2013,08,30,12,14,17.10
2013,08,30,12,15,17.20
2013,08,30,12,16,17.20
2013,08,30,12,17,17.20
2013,08,30,12,18,17.20
2013,08,30,12,19,17.20
2013,08,30,12,20,17.20
2013,08,30,12,21,17.20
2013,08,30,12,22,17.20
2013,08,30,12,23,17.20
2013,08,30,12,24,17.20
2013,08,30,12,25,17.30
2013,08,30,12,26,17.30
2013,08,30,12,27,17.30
2013,08,30,12,28,17.30
2013,08,30,12,29,17.40
2013,08,30,12,30,17.40
2013,08,30,12,31,17.40
2013,08,30,12,32,17.50
2013,08,30,12,33,17.60
2013,08,30,12,34,17.60
2013,08,30,12,35,17.60
2013,08,30,12,36,17.70
2013,08,30,12,37,17.70
2013,08,30,12,38,17.70
2013,08,30,12,39,17.80
2013,08,30,12,40,17.80
2013,08,30,12,41,17.80
2013,08,30,12,42,17.90
2013,08,30,12,43,17.90
2013,08,30,12,44,17.90
2013,08,30,12,45,17.90
2013,08,30,12,46,17.90
2013,08,30,12,47,18.00
2013,08,30,12,48,18.00
2013,08,30,12,49,18.00
2013,08,30,12,50,18.00
2013,08,30,12,51,18.00
2013,08,30,12,52,18.00
2013,08,30,12,53,18.00
2013,08,30,12,54,18.00
2013,08,30,12,55,18.00
2013,08,30,12,56,18.00
2013,08,30,12,57,18.00
2013,08,30,12,58,18.00
2013,08,30,12,59,18.00
2013,08,30,13,00,18.00
2013,08,30,13,01,18.00
2013,08,30,13,02,18.00
2013,08,30,13,03,18.10
2013,08,30,13,04,18.10
2013,08,30,13,05,18.10
2013,08,30,13,06,18.10
2013,08,30,13,07,18.20
2013,08,30,13,08,18.20
2013,08,30,13,09,18.20
2013,08,30,13,10,18.20
2013,08,30,13,11,18.20
2013,08,30,13,12,18.20
2013,08,30,13,13,18.20
2013,08,30,13,14,18.20
2013,08,30,13,15,18.20
2013,08,30,13,16,18.30
2013,08,30,13,17,18.30
2013,08,30,13,18,18.30
2013,08,30,13,19,18.30
2013,08,30,13,20,18.30
2013,08,30,13,21,18.30
2013,08,30,13,22,18.20
2013,08,30,13,23,18.20
2013,08,30,13,24,18.20
2013,08,30,13,25,18.20
2013,08,30,13,26,18.20
2013,08,30,13,27,18.20
2013,08,30,13,28,18.20
2013,08,30,13,29,18.20
2013,08,30,13,30,18.20
2013,08,30,13,31,18.10
2013,08,30,13,32,18.10
2013,08,30,13,33,18.10
2013,08,30,13,34,18.10
2013,08,30,13,35,18.10
2013,08,30,13,36,18.10
2013,08,30,13,37,18.00
2013,08,30,13,38,18.00
2013,08,30,13,39,18.00
2013,08,30,13,40,18.00
2013,08,30,13,41,18.00
2013,08,30,13,42,18.00
2013,08,30,13,43,18.00
2013,08,30,13,44,18.00
2013,08,30,13,45,18.00
2013,08,30,13,46,18.00
2013,08,30,13,47,18.00
2013,08,30,13,48,18.00
2013,08,30,13,49,18.00
2013,08,30,13,50,18.00
2013,08,30,13,51,18.10
2013,08,30,13,52,18.10
2013,08,30,13,53,18.10
2013,08,30,13,54,18.10
2013,08,30,13,55,18.10
2013,08,30,13,56,18.10
2013,08,30,13,57,18.10
2013,08,30,13,58,18.10
2013,08,30,13,59,18.10
2013,08,30,14,00,18.10
2013,08,30,14,01,18.10
2013,08,30,14,02,18.10
2013,08,30,14,03,18.10
2013,08,30,14,04,18.10
2013,08,30,14,05,18.10
2013,08,30,14,06,18.20
2013,08,30,14,07,18.20
2013,08,30,14,08,18.20
2013,08,30,14,09,18.20
2013,08,30,14,10,18.20
2013,08,30,14,11,18.20
2013,08,30,14,12,18.30
2013,08,30,14,13,18.30
2013,08,30,14,14,18.30
2013,08,30,14,15,18.30
2013,08,30,14,16,18.30
2013,08,30,14,17,18.40
2013,08,30,14,18,18.40
2013,08,30,14,19,18.40
2013,08,30,14,20,18.50
2013,08,30,14,21,18.50
2013,08,30,14,22,18.50
2013,08,30,14,23,18.50
2013,08,30,14,24,18.60
2013,08,30,14,25,18.60
2013,08,30,14,26,18.60
2013,08,30,14,27,18.60
2013,08,30,14,28,18.60
2013,08,30,14,29,18.60
2013,08,30,14,30,18.60
2013,08,30,14,31,18.60
2013,08,30,14,32,18.60
2013,08,30,14,33,18.60
2013,08,30,14,34,18.60
2013,08,30,14,35,18.60
2013,08,30,14,36,18.60
2013,08,30,14,37,18.60
2013,08,30,14,38,18.60
2013,08,30,14,39,18.60
2013,08,30,14,40,18.60
2013,08,30,14,41,18.60
2013,08,30,14,42,18.60
2013,08,30,14,43,18.60
2013,08,30,14,44,18.70
2013,08,30,14,45,18.70
2013,08,30,14,46,18.70
2013,08,30,14,47,18.70
2013,08,30,14,48,18.70
2013,08,30,14,49,18.70
2013,08,30,14,50,18.80
2013,08,30,14,51,18.80
2013,08,30,14,52,18.80
2013,08,30,14,53,18.90
2013,08,30,14,54,18.90
2013,08,30,14,55,19.00
2013,08,30,14,56,19.00
2013,08,30,14,57,19.10
2013,08,30,14,58,19.10
2013,08,30,14,59,19.10
2013,08,30,15,00,19.20
2013,08,30,15,01,19.20
2013,08,30,15,02,19.20
2013,08,30,15,03,19.30
2013,08,30,15,04,19.30
2013,08,30,15,05,19.40
2013,08,30,15,06,19.40
2013,08,30,15,07,19.50
2013,08,30,15,08,19.50
2013,08,30,15,09,19.60
2013,08,30,15,10,19.60
2013,08,30,15,11,19.60
2013,08,30,15,12,19.60
2013,08,30,15,13,19.70
2013,08,30,15,14,19.70
2013,08,30,15,15,19.70
2013,08,30,15,16,19.70
2013,08,30,15,17,19.80
2013,08,30,15,18,19.80
2013,08,30,15,19,19.80
2013,08,30,15,20,19.80
2013,08,30,15,21,19.80
2013,08,30,15,22,19.90
2013,08,30,15,23,19.90
2013,08,30,15,24,19.90
2013,08,30,15,25,19.90
2013,08,30,15,26,20.00
2013,08,30,15,27,20.00
2013,08,30,15,28,20.00
2013,08,30,15,29,20.00
2013,08,30,15,30,20.10
2013,08,30,15,31,20.10
2013,08,30,15,32,20.10
2013,08,30,15,33,20.10
2013,08,30,15,34,20.10
2013,08,30,15,35,20.10
2013,08,30,15,36,20.00
2013,08,30,15,37,20.00
2013,08,30,15,38,20.00
2013,08,30,15,39,20.00
2013,08,30,15,40,20.00
2013,08,30,15,41,20.00
2013,08,30,15,42,20.00
2013,08,30,15,43,20.00
2013,08,30,15,44,19.90
2013,08,30,15,45,19.90
2013,08,30,15,46,20.00
2013,08,30,15,47,20.00
2013,08,30,15,48,20.00
2013,08,30,15,49,20.10
2013,08,30,15,50,20.10
2013,08,30,15,51,20.10
2013,08,30,15,52,20.10
2013,08,30,15,53,20.20
2013,08,30,15,54,20.20
2013,08,30,15,55,20.20
2013,08,30,15,56,20.30
2013,08,30,15,57,20.30
2013,08,30,15,58,20.30
2013,08,30,15,59,20.30
2013,08,30,16,00,20.40
2013,08,30,16,01,20.40
2013,08,30,16,02,20.40
2013,08,30,16,03,20.40
2013,08,30,16,04,20.40
2013,08,30,16,05,20.50
2013,08,30,16,06,20.50
2013,08,30,16,07,20.50
2013,08,30,16,08,20.60
2013,08,30,16,09,20.60
2013,08,30,16,10,20.60
2013,08,30,16,11,20.70
2013,08,30,16,12,20.70
2013,08,30,16,13,20.70
2013,08,30,16,14,20.60
2013,08,30,16,15,20.60
2013,08,30,16,16,20.60
2013,08,30,16,17,20.60
2013,08,30,16,18,20.50
2013,08,30,16,19,20.50
2013,08,30,16,20,20.50
2013,08,30,16,21,20.50
2013,08,30,16,22,20.50
2013,08,30,16,23,20.50
2013,08,30,16,24,20.50
2013,08,30,16,25,20.40
2013,08,30,16,26,20.40
2013,08,30,16,27,20.30
2013,08,30,16,28,20.20
2013,08,30,16,29,20.10
2013,08,30,16,30,20.00
2013,08,30,16,31,19.90
2013,08,30,16,32,19.90
2013,08,30,16,33,19.80
2013,08,30,16,34,19.70
2013,08,30,16,35,19.70
2013,08,30,16,36,19.60
2013,08,30,16,37,19.60
2013,08,30,16,38,19.60
2013,08,30,16,39,19.60
2013,08,30,16,40,19.60
2013,08,30,16,41,19.60
2013,08,30,16,42,19.60
2013,08,30,16,43,19.60
2013,08,30,16,44,19.60
2013,08,30,16,45,19.60
2013,08,30,16,46,19.60
2013,08,30,16,47,19.60
2013,08,30,16,48,19.60
2013,08,30,16,49,19.60
2013,08,30,16,50,19.60
2013,08,30,16,51,19.60
2013,08,30,16,52,19.60
2013,08,30,16,53,19.70
2013,08,30,16,54,19.70
2013,08,30,16,55,19.70
2013,08,30,16,56,19.70
2013,08,30,16,57,19.70
2013,08,30,16,58,19.70
2013,08,30,16,59,19.70
2013,08,30,17,00,19.70
2013,08,30,17,01,19.70
2013,08,30,17,02,19.70
2013,08,30,17,03,19.70
2013,08,30,17,04,19.80
2013,08,30,17,05,19.80
2013,08,30,17,06,19.80
2013,08,30,17,07,19.80
2013,08,30,17,08,19.80
2013,08,30,17,09,19.80
2013,08,30,17,10,19.80
2013,08,30,17,11,19.70
2013,08,30,17,12,19.70
2013,08,30,17,13,19.60
2013,08,30,17,14,19.60
2013,08,30,17,15,19.60
2013,08,30,17,16,19.50
2013,08,30,17,17,19.50
2013,08,30,17,18,19.50
2013,08,30,17,19,19.50